バス彗星

87P/Bus (2020)

English version
Home page
Updated on August 15, 2020

---------------------------------------------------------------------

・ プロフィール

・ 写真集

・ 軌道要素

Epoch 2020 Apr. 21.0 TT = JDT 2458960.5
T 2020 May  9.28857 TT                                  Rudenko
q   2.0998451            (2000.0)            P               Q
n   0.15462393     Peri.   24.93617     -0.89259189     +0.45086310
a   3.4378340      Node   181.86486     -0.42090316     -0.83444485
e   0.3891953      Incl.    2.60258     -0.16161762     -0.31689786
P   6.37
From 674 observations 2006 Dec. 15-2020 July 14, mean residual 1".3.
     Nongravitational parameters A1 = +2.01, A2 = -0.2296.

・ 光度変化

        m1 = 11.5 + 5 logΔ + 15.0 log r

---------------------------------------------------------------------

軌道要素はM.P.E.C. 2020-P19に掲載されたものです。
光度グラフはComet for Windowsで作成したものです。

---------------------------------------------------------------------

Copyright(C) Seiichi Yoshida (comet@aerith.net). All rights reserved.